Hourly Data Report for October 14, 2014

All times are specified in Local Standard Time (LST). Add 1 hour to adjust for Daylight Saving Time where and when it is observed.

CAPE DORSET A
NUNAVUT

64°13'49.000" N
76°31'30.000" W
48.20 m
2400637
71366
YTE

Download Data

Hourly Data (October 2014)
Hourly Data Report for October 14, 2014
Temp Definition
°C
Dew Point Temp Definition
°C
Rel Hum Definition
%
Wind Dir Definition
10's deg

Wind Spd Definition
km/h
Visibility Definition
km
Stn Press Definition
kPa
Hmdx Definition


Wind Chill Definition


Weather Definition


TIME
00:00 Legend Double Dagger -2.9 -4.8 87 LegendMM 4 16.1 100.00   -4 LegendNANA
01:00 Legend Double Dagger -2.5 -5.0 83 LegendMM 4 16.1 100.03   -4 LegendNANA
02:00 Legend Double Dagger -2.4 -4.4 86 30 5 16.1 100.06   -4 LegendNANA
03:00 Legend Double Dagger -2.0 -4.7 82 LegendMM 4 16.1 100.08   -3 LegendNANA
04:00 Legend Double Dagger -2.1 -4.3 85 LegendMM 4 16.1 100.12   -4 LegendNANA
05:00 Legend Double Dagger -2.9 -3.9 93 36 9 16.1 100.12   -6 LegendNANA
06:00 Legend Double Dagger -3.1 -4.4 91 33 4 16.1 100.15   -5 LegendNANA
07:00 Legend Double Dagger -3.3 -4.6 91 2 9 16.1 100.17   -7 LegendNANA
08:00 Legend Double Dagger -3.3 -4.4 92 28 4 16.1 100.19   -5 LegendNANA
09:00 Legend Double Dagger -3.3 -4.4 92   0 14.5 100.18     LegendNANA
10:00 Legend Double Dagger -3.2 -4.2 93 30 5 16.1 100.19   -5 LegendNANA
11:00 Legend Double Dagger -3.2 -3.9 95 31 9 16.1 100.19   -7 LegendNANA
12:00 Legend Double Dagger -3.2 -4.0 94 31 5 14.5 100.19   -5 Snow
13:00 Legend Double Dagger -3.3 -3.7 97 31 11 16.1 100.20   -8 LegendNANA
14:00 Legend Double Dagger -3.3 -3.9 96 34 8 11.3 100.21   -7 LegendNANA
15:00 Legend Double Dagger -3.4 -4.0 96   0 8.1 100.22     Snow
16:00 Legend Double Dagger -3.7 -4.4 95 22 8 11.3 100.21   -7 LegendNANA
17:00 Legend Double Dagger -3.7 -4.7 93 22 9 16.1 100.21   -7 LegendNANA
18:00 Legend Double Dagger -4.0 -4.3 98 23 9 9.7 100.20   -8 Fog
19:00 Legend Double Dagger -4.9 -5.7 94 25 13 16.1 100.17   -10 LegendNANA
20:00 Legend Double Dagger -4.7 -5.8 92 28 11 16.1 100.15   -9 LegendNANA
21:00 Legend Double Dagger -4.6 -5.4 94 27 5 16.1 100.11   -7 LegendNANA
22:00 Legend Double Dagger -4.8 -5.2 97   0 16.1 100.10     LegendNANA
23:00 Legend Double Dagger -4.1 -5.1 93   0 16.1 100.09     LegendNANA

Notes on Data Quality.

Legend

  • E = Estimated
  • M = Missing
  • NA = Not Available
  • ‡ = Partner data that is not subject to review by the National Climate Archives
Date modified: